Weather History for Charlottetown, PE

Change the Weather History Date:

Friday, July 19, 2013

  Actual Average Record
Temperature  
Mean Temperature 59 °F -  
Max Temperature 71 °F 73 °F 80 °F (1996)
Min Temperature 49 °F 56 °F 48 °F (2001)
Degree Days  
Heating Degree Days 6    
Growing Degree Days 9 (Base 50)    
Moisture  
Dew Point 59 °F    
Average Humidity 84    
Maximum Humidity 94    
Minimum Humidity 59    
Precipitation  
Precipitation 0.03 in 0.11 in - ()
Sea Level Pressure  
Sea Level Pressure 29.85 in    
Wind  
Wind Speed 8 mph ()    
Max Wind Speed 21 mph    
Max Gust Speed 28 mph    
Visibility 13.7 miles    
Events Rain    
Averages and records for this station are not official NWS values.
T = Trace of Precipitation, MM = Missing Value Source: Averaged Metar Reports

Daily Weather History Graph

Daily Weather History Graph

Search for Another Location

Airport:

Trip Planner

Search our weather history database for the weather conditions in past years. The results will help you decide how hot, cold, wet, or windy it might be!

Date:

Astronomy

Jul. 19, 2013 Rise Set
Actual Time 5:39 AM ADT 8:57 PM ADT
Civil Twilight 5:02 AM ADT 9:34 PM ADT
Nautical Twilight 4:14 AM ADT 10:21 PM ADT
Astronomical Twilight 3:14 AM ADT 11:21 PM ADT
Moon 5:54 PM ADT (7/19) 2:18 AM ADT (7/19)
Length of Visible Light 16h 31m
Length of Day
15h 17m
Waxing Gibbous, 86% of the Moon is Illuminated
Jul 19
Waxing Gibbous
Jul 22
Full
Jul 29
Last Quarter
Aug 6
New
Aug 14
First Quarter

Hourly Weather History & Observations

Time (ADT) Temp. Dew Point Humidity Pressure Visibility Wind Dir Wind Speed Gust Speed Precip Events Conditions
12:00 AM 57.2 °F 51.8 °F 82% 30.02 in 15.0 mi Calm Calm - N/A   Partly Cloudy
1:00 AM 57.2 °F 51.8 °F 82% 30.03 in 15.0 mi Calm Calm - N/A   Partly Cloudy
2:00 AM 51.8 °F 50.0 °F 94% 30.02 in 15.0 mi Calm Calm - N/A   Partly Cloudy
3:00 AM 52 °F 50 °F 89% 30.01 in 15 mi SE 1.2 mph - -   Clear
3:00 AM 51.8 °F 50.0 °F 94% 30.01 in 15.0 mi ESE 2.3 mph - N/A   Partly Cloudy
4:00 AM 57.2 °F 53.6 °F 88% 30.01 in 15.0 mi SSE 3.5 mph - N/A   Partly Cloudy
5:00 AM 57.2 °F 53.6 °F 88% 30.01 in 15.0 mi SSE 5.8 mph - N/A   Mostly Cloudy
6:00 AM 57.2 °F 53.6 °F 88% 30.00 in 15.0 mi ESE 3.5 mph - N/A   Mostly Cloudy
7:00 AM 60.8 °F 53.6 °F 77% 29.99 in 15.0 mi ESE 5.8 mph - N/A   Mostly Cloudy
8:00 AM 62.6 °F 59.0 °F 88% 29.99 in 15.0 mi SE 9.2 mph - N/A   Overcast
9:00 AM 64 °F 54 °F 60% 30.00 in 15 mi SSE 9.2 mph - -   Overcast
9:00 AM 64.4 °F 53.6 °F 68% 30.00 in 15.0 mi SE 10.4 mph - N/A   Overcast
10:00 AM 64.4 °F 50.0 °F 59% 29.97 in 15.0 mi SSE 15.0 mph - N/A   Overcast
11:00 AM 64.4 °F 53.6 °F 68% 29.96 in 15.0 mi SSE 12.7 mph 19.6 mph N/A   Overcast
12:00 PM 64.4 °F 53.6 °F 68% 29.92 in 15.0 mi SE 15.0 mph - N/A   Overcast
12:19 PM 66.2 °F 55.4 °F 68% 29.92 in 15.0 mi SSE 15.0 mph - N/A Rain Light Rain Showers
1:00 PM 66.2 °F 57.2 °F 73% 29.90 in 15.0 mi SSE 12.7 mph - N/A Rain Light Rain Showers
1:22 PM 66.2 °F 59.0 °F 78% 29.88 in 4.0 mi SSE 20.7 mph 26.5 mph N/A Rain Light Rain Showers
2:00 PM 64.4 °F 60.8 °F 88% 29.86 in 6.0 mi SSE 11.5 mph - N/A Rain Light Rain Showers
2:28 PM 64.4 °F 60.8 °F 88% 29.83 in 12.0 mi SSE 18.4 mph 26.5 mph N/A Rain Light Rain Showers
3:00 PM 65 °F 62 °F 88% 29.79 in 6 mi SSE 18.4 mph - - Rain Light Rain Showers
3:00 PM 64.4 °F 62.6 °F 94% 29.79 in 6.0 mi SSE 17.3 mph 24.2 mph N/A Rain Light Rain Showers
4:00 PM 66.2 °F 62.6 °F 88% 29.76 in 12.0 mi SSE 16.1 mph 21.9 mph N/A Rain Light Rain Showers
4:34 PM 68.0 °F 62.6 °F 83% 29.73 in 15.0 mi South 18.4 mph 24.2 mph N/A   Overcast
5:00 PM 68.0 °F 64.4 °F 88% 29.72 in 15.0 mi South 19.6 mph 27.6 mph N/A Rain Light Rain Showers
5:30 PM 68.0 °F 64.4 °F 88% 29.69 in 15.0 mi South 19.6 mph 26.5 mph N/A   Overcast
6:00 PM 68.0 °F 66.2 °F 94% 29.68 in 15.0 mi South 17.3 mph 24.2 mph N/A   Overcast
7:00 PM 69.8 °F 66.2 °F 88% 29.65 in 15.0 mi South 17.3 mph 25.3 mph N/A   Overcast
7:25 PM 69.8 °F 66.2 °F 88% 29.65 in 15.0 mi South 16.1 mph 21.9 mph N/A   Overcast
8:00 PM 69.8 °F 66.2 °F 88% 29.64 in 15.0 mi South 17.3 mph - N/A   Overcast
9:00 PM 69 °F 67 °F 92% 29.62 in 15 mi Calm Calm - -   Partly Cloudy
9:00 PM 69.8 °F 68.0 °F 94% 29.62 in 15.0 mi North - - N/A   Mostly Cloudy
10:00 PM 68.0 °F 66.2 °F 94% 29.59 in 15.0 mi South 13.8 mph - N/A   Mostly Cloudy
11:00 PM 71.6 °F 68.0 °F 88% 29.57 in 15.0 mi South 12.7 mph - N/A   Mostly Cloudy